(301349) = 2009 CO10 = 2009 DD144 = 2010 PW66

Discovered at Mount Lemmon on 2009-02-01 by Mt. Lemmon Survey.

Orbit

Orbit type: Main Belt

Note: WebGL enabled browser required.

epoch2022-01-21.0
epoch JD2459600.5
perihelion date2019-12-04.73592
perihelion JD2458822.23592
argument of perihelion (°)37.44159
ascending node (°)306.48338
inclination (°)13.21436
eccentricity0.1379959
perihelion distance (AU)2.2549717
Tisserand w.r.t. Jupiter3.4
ΔV w.r.t. Earth (km/sec)10.3
semimajor axis (AU)2.6159641
mean anomaly (°)181.29389
mean daily motion (°/day)0.23294650
aphelion distance (AU)2.977
period (years)4.23
P-vector [x]0.94795696
P-vector [y]-0.31810975
P-vector [z]0.01355665
Q-vector [x]0.25999281
Q-vector [y]0.79794390
Q-vector [z]0.54377319
absolute magnitude16.22
phase slope0.15
uncertainty0
referenceMPO 697175
observations used382
oppositions14
arc length (days)8633
first opposition used1998
last opposition used2022
residual rms (arc-secs)0.72
perturbers coarse indicatorM-v
perturbers precise indicator003Ek
first observation date used1998-08-17.0
last observation date used2022-04-06.0
computer namePan
JD of orbit computation2456700.407473
perihelion JD uncertainty (days)1.9105E-04
argument of perihelion uncertainty (°)4.4894E-05
ascending node uncertainty (°)2.9285E-05
inclination uncertainty (°)1.1431E-05
eccentricity uncertainty 1.1105E-07
perihelion distance uncertainty (AU)2.7950E-07
Minimum Orbit Intersection Distances (in AU)
for orbit epoch: 2458200.5, reference: MPO402142
Mercury1.86577
Venus1.54169
Earth1.25465
Mars0.900965
Jupiter2.39893
Saturn6.2659
Uranus15.2679
Neptune27.1565

Observations

396 total observations over interval: 1998 08 17.25472 – 2022 04 06.173435
These data are available for download (format description).

Date (UT) J2000 RA J2000 Dec Magn Location Ref
1998 08 17.25472 21 48 58.00 -04 43 13.5   704 – Lincoln Laboratory ETS, New Mexico MPS 407616
1998 08 17.27559 21 48 56.65 -04 43 12.5   704 – Lincoln Laboratory ETS, New Mexico MPS 407616
1998 08 17.31758 21 48 53.81 -04 43 05.4   704 – Lincoln Laboratory ETS, New Mexico MPS 407616
2002 07 05.33190 19 52 42.24 -27 51 23.1   704 – Lincoln Laboratory ETS, New Mexico MPS 407616
2002 07 05.34509 19 52 41.43 -27 51 20.6   704 – Lincoln Laboratory ETS, New Mexico MPS 407616
2002 07 05.35831 19 52 40.54 -27 51 19.4   704 – Lincoln Laboratory ETS, New Mexico MPS 407616
2002 07 05.37153 19 52 39.68 -27 51 16.6   704 – Lincoln Laboratory ETS, New Mexico MPS 407616
2007 11 04.38629 03 05 09.49 +39 35 35.6 19.4 V 703 – Catalina Sky Survey MPS 349552
2007 11 04.41224 03 05 07.58 +39 35 29.5 19.6 V 703 – Catalina Sky Survey MPS 349552
2007 11 04.41806 03 05 07.18 +39 35 27.6 19.8 V 703 – Catalina Sky Survey MPS 349552
2007 11 04.42390 03 05 06.79 +39 35 26.0 19.9 V 703 – Catalina Sky Survey MPS 349552
2007 11 18.16719 02 49 55.41 +38 21 07.2 19.6 V 703 – Catalina Sky Survey MPS 349552
2007 11 18.17937 02 49 54.55 +38 21 02.1 19.7 V 703 – Catalina Sky Survey MPS 349552
2007 11 18.19163 02 49 53.79 +38 20 57.5 19.5 V 703 – Catalina Sky Survey MPS 349552
2007 11 18.20377 02 49 53.00 +38 20 52.6 19.6 V 703 – Catalina Sky Survey MPS 349552
2009 02 01.32892 10 10 02.28 +04 17 17.5 20.4 V G96 – Mt. Lemmon Survey MPS 276746
2009 02 01.33858 10 10 01.66 +04 17 17.5 20.7 V G96 – Mt. Lemmon Survey MPS 276746
2009 02 01.34839 10 10 01.16 +04 17 17.9 20.6 V G96 – Mt. Lemmon Survey MPS 276746
2009 02 01.35773 10 10 00.69 +04 17 17.8 20.7 V G96 – Mt. Lemmon Survey MPS 276746
2009 02 03.34792 10 08 13.70 +04 18 07.4 20.3 V 691 – Steward Observatory, Kitt Peak-Spacewatch MPS 276746
2009 02 03.36624 10 08 12.68 +04 18 08.2 20.4 V 691 – Steward Observatory, Kitt Peak-Spacewatch MPS 276746
2009 02 03.38433 10 08 11.65 +04 18 09.2 20.3 V 691 – Steward Observatory, Kitt Peak-Spacewatch MPS 276746
2009 02 26.24838 09 46 08.54 +04 51 21.1 20.6 V 703 – Catalina Sky Survey MPC 81567
2009 02 26.25643 09 46 08.25 +04 51 23.5 19.6 V 703 – Catalina Sky Survey MPC 81567
2009 02 26.26439 09 46 07.82 +04 51 23.8 19.9 V 703 – Catalina Sky Survey MPC 81567
2009 02 26.27238 09 46 07.35 +04 51 25.9 20.6 V 703 – Catalina Sky Survey MPC 81567
2010 02 16.651647 15 27 13.435 -33 23 26.59   C51 – WISE MPS 903986
2010 02 16.916382 15 27 27.64 -33 25 25.2   C51 – WISE MPS 372080
2010 02 17.048686 15 27 34.656 -33 26 25.22   C51 – WISE MPS 903986
2010 02 17.445600 15 27 55.99 -33 29 23.7   C51 – WISE MPS 372080
2010 02 17.445727 15 27 56.03 -33 29 23.6   C51 – WISE MPS 372080
2010 02 17.511815 15 27 59.522 -33 29 52.76   C51 – WISE MPS 903986
2010 02 17.644119 15 28 06.57 -33 30 53.6   C51 – WISE MPS 372080
2010 02 17.776551 15 28 13.60 -33 31 52.7   C51 – WISE MPS 372080
2010 02 17.908854 15 28 20.75 -33 32 51.7   C51 – WISE MPS 372080
2010 08 08.34128 15 02 29.77 -29 35 02.5   C51 – WISE MPS 345057
2010 08 08.47358 15 02 37.71 -29 34 40.2   C51 – WISE MPS 345057
2010 08 08.60589 15 02 45.62 -29 34 18.9   C51 – WISE MPS 345057
2010 08 09.00280 15 03 09.38 -29 33 16.3   C51 – WISE MPS 345057
2010 08 09.06889 15 03 13.43 -29 33 05.8   C51 – WISE MPS 345057
2010 08 09.13510 15 03 17.29 -29 32 55.4   C51 – WISE MPS 345057
2010 08 09.20119 15 03 21.34 -29 32 45.7   C51 – WISE MPS 345057
2010 08 09.33349 15 03 29.48 -29 32 24.3   C51 – WISE MPS 345057
2010 08 09.59810 15 03 45.38 -29 31 43.7   C51 – WISE MPS 345057
2011 09 21.79903 00 49 47.06 +27 32 53.5 19.5 V A50 – Andrushivka Astronomical Observatory MPS 391225
2011 09 21.82200 00 49 45.76 +27 32 56.3 19.4 V A50 – Andrushivka Astronomical Observatory MPS 391225
2011 09 21.84494 00 49 44.46 +27 32 59.2 19.6 V A50 – Andrushivka Astronomical Observatory MPS 391225
2011 09 22.22980 00 49 23.80 +27 33 42.1 18.8 V 703 – Catalina Sky Survey MPS 391225
2011 09 22.23646 00 49 23.41 +27 33 42.0 19.3 V 703 – Catalina Sky Survey MPS 391225
2011 09 22.24318 00 49 23.01 +27 33 42.5 18.9 V 703 – Catalina Sky Survey MPS 391225
2011 09 22.24987 00 49 22.62 +27 33 43.8 19.0 V 703 – Catalina Sky Survey MPS 391225
2011 09 28.40493 00 43 31.08 +27 38 00.2 19.1 V 703 – Catalina Sky Survey MPS 392752
2011 09 28.41064 00 43 30.68 +27 37 59.4 18.7 V 703 – Catalina Sky Survey MPS 392752
2011 09 28.41637 00 43 30.36 +27 37 59.5 19.1 V 703 – Catalina Sky Survey MPS 392752
2011 09 28.42211 00 43 30.03 +27 37 58.6 19.1 V 703 – Catalina Sky Survey MPS 392752
2011 11 24.20950 00 11 17.80 +22 26 07.5 19.6 V 703 – Catalina Sky Survey MPS 402256
2011 11 24.21720 00 11 17.73 +22 26 04.9 19.9 V 703 – Catalina Sky Survey MPS 402256
2011 11 24.22502 00 11 18.06 +22 26 01.9 19.1 V 703 – Catalina Sky Survey MPS 402256
2011 11 24.23285 00 11 18.02 +22 25 59.4 19.9 V 703 – Catalina Sky Survey MPS 402256
2013 01 05.34641 09 15 54.08 +16 01 41.7 20.2 V 691 – Steward Observatory, Kitt Peak-Spacewatch MPS 450843
2013 01 05.36410 09 15 53.23 +16 01 41.2 20.4 V 691 – Steward Observatory, Kitt Peak-Spacewatch MPS 450843
2013 01 05.38178 09 15 52.45 +16 01 40.2 20.8 V 691 – Steward Observatory, Kitt Peak-Spacewatch MPS 450843
2013 01 09.28680 09 12 46.32 +16 00 11.2 20.6 V 691 – Steward Observatory, Kitt Peak-Spacewatch MPS 450843
2013 01 09.30450 09 12 45.39 +16 00 10.9 20.5 V 691 – Steward Observatory, Kitt Peak-Spacewatch MPS 450843
2013 01 09.32219 09 12 44.47 +16 00 10.7 20.3 V 691 – Steward Observatory, Kitt Peak-Spacewatch MPS 450843
2013 01 13.10317 09 09 26.39 +15 59 34.8 19.6 R J04 – ESA Optical Ground Station, Tenerife MPS 452204
2013 01 13.11475 09 09 25.75 +15 59 34.5 19.3 R J04 – ESA Optical Ground Station, Tenerife MPS 452204
2013 01 13.12632 09 09 25.10 +15 59 34.6 19.4 R J04 – ESA Optical Ground Station, Tenerife MPS 452204
2013 01 13.13790 09 09 24.45 +15 59 34.4 19.7 R J04 – ESA Optical Ground Station, Tenerife MPS 452204
2013 01 18.29243 09 04 31.45 +15 59 44.8 20.2 V 691 – Steward Observatory, Kitt Peak-Spacewatch MPS 452204
2013 01 18.30762 09 04 30.53 +15 59 44.9 20.0 V 691 – Steward Observatory, Kitt Peak-Spacewatch MPS 452204
2013 01 18.32282 09 04 29.60 +15 59 45.2 20.2 V 691 – Steward Observatory, Kitt Peak-Spacewatch MPS 452204
2013 01 18.33815 09 04 28.66 +15 59 45.0 19.9 V G96 – Mt. Lemmon Survey MPS 452204
2013 01 18.34460 09 04 28.27 +15 59 45.0 20.0 V G96 – Mt. Lemmon Survey MPS 452204
2013 01 18.35108 09 04 27.87 +15 59 45.1 20.0 V G96 – Mt. Lemmon Survey MPS 452204
2013 01 18.35762 09 04 27.44 +15 59 45.0 19.9 V G96 – Mt. Lemmon Survey MPS 452204
2013 01 19.29117 09 03 32.22 +15 59 51.6 18.5 V G96 – Mt. Lemmon Survey MPS 453149
2013 01 19.29648 09 03 31.78 +15 59 53.3 20.0 V G96 – Mt. Lemmon Survey MPS 453149
2013 01 19.30179 09 03 31.50 +15 59 53.4 20.0 V G96 – Mt. Lemmon Survey MPS 453149
2013 01 19.30711 09 03 31.14 +15 59 53.1 20.0 V G96 – Mt. Lemmon Survey MPS 453149
2013 02 01.35472 08 49 57.18 +16 03 02.1 20.1 V G96 – Mt. Lemmon Survey MPS 453619
2013 02 01.36307 08 49 56.71 +16 03 01.2 19.7 V G96 – Mt. Lemmon Survey MPS 453619
2013 02 01.37142 08 49 56.20 +16 03 02.8 20.2 V G96 – Mt. Lemmon Survey MPS 453619
2013 02 01.37980 08 49 55.59 +16 03 02.7 20.4 V G96 – Mt. Lemmon Survey MPS 453619
2013 02 03.34021 08 47 52.411 +16 03 30.95 19.8 w F51 – Pan-STARRS 1, Haleakala MPS 456164
2013 02 03.35484 08 47 51.472 +16 03 31.21 19.8 w F51 – Pan-STARRS 1, Haleakala MPS 456164
2013 02 03.36950 08 47 50.526 +16 03 31.43 19.8 w F51 – Pan-STARRS 1, Haleakala MPS 456164
2013 02 03.38415 08 47 49.582 +16 03 31.68 19.9 w F51 – Pan-STARRS 1, Haleakala MPS 456164
2013 02 07.96357 08 43 06.22 +16 04 22.4 20.3   J43 – Oukaimeden Observatory, Marrakech MPS 456164
2013 02 07.98168 08 43 05.11 +16 04 22.4 20.6   J43 – Oukaimeden Observatory, Marrakech MPS 456164
2013 02 07.99988 08 43 03.97 +16 04 22.7 20.7   J43 – Oukaimeden Observatory, Marrakech MPS 456164
2013 02 08.01802 08 43 02.83 +16 04 22.7 20.5   J43 – Oukaimeden Observatory, Marrakech MPS 456164
2013 02 14.21312 08 37 00.48 +16 04 40.6 20.2 V G96 – Mt. Lemmon Survey MPS 456164
2013 02 14.21848 08 37 00.19 +16 04 40.5 20.2 V G96 – Mt. Lemmon Survey MPS 456164
